0 GLOBALSTAR M001 1 25162U 98008A 24110.23556935 -.00000040 00000-0 43164-3 0 9993 2 25162 52.0007 127.1389 0001582 78.5724 2.0099 12.38181877191302 0 GLOBALSTAR M004 1 25163U 98008B 24110.57822101 -.00000058 00000-0 25506-3 0 9991 2 25163 51.9992 266.4441 0003647 77.9150 357.4492 12.63355542208246 0 GLOBALSTAR M002 1 25164U 98008C 24110.50332566 -.00000070 00000-0 13506-3 0 9997 2 25164 52.0004 222.5126 0001812 103.9199 256.1823 11.61501007134901 0 GLOBALSTAR M003 1 25165U 98008D 24109.75426983 .00000027 00000-0 12440-2 0 9996 2 25165 51.9842 264.0508 0008491 156.1998 309.1099 12.11993770181759 0 GLOBALSTAR M014 1 25306U 98023A 24110.09311281 -.00000051 00000-0 49409-3 0 9997 2 25306 51.9811 155.6817 0000742 284.4238 89.3110 11.65466939141716 0 GLOBALSTAR M006 1 25307U 98023B 24110.45976788 -.00000022 00000-0 10956-2 0 9999 2 25307 51.9922 191.3919 0003675 72.7267 11.6942 11.58160946167842 0 GLOBALSTAR M015 1 25308U 98023C 24109.65104367 -.00000081 00000-0 -16608-3 0 9993 2 25308 51.9816 272.4200 0012804 45.0094 81.5224 11.48850253145283 0 GLOBALSTAR M008 1 25309U 98023D 24109.87352674 -.00000088 00000-0 60869-4 0 9999 2 25309 51.9994 348.2182 0002790 16.7157 112.7365 12.36040766185689 0 GLOBALSTAR M023 1 25621U 99004A 24109.77516308 -.00000038 00000-0 36661-3 0 9998 2 25621 52.0103 265.7356 0009543 268.2767 201.0907 12.62450818162120 0 GLOBALSTAR M040 1 25622U 99004B 24109.74324837 -.00000038 00000-0 36940-3 0 9990 2 25622 51.9910 269.3632 0001153 143.0825 321.6574 12.61971539161660 0 GLOBALSTAR M036 1 25623U 99004C 24110.48383006 -.00000076 00000-0 96519-4 0 9998 2 25623 51.9962 277.0768 0010673 320.3594 58.0427 11.86566842128668 0 GLOBALSTAR M038 1 25624U 99004D 24109.47704485 -.00000069 00000-0 21178-3 0 9994 2 25624 51.9965 214.6562 0001625 230.0819 209.8427 12.32497072150004 0 GLOBALSTAR M022 1 25649U 99012A 24110.17238628 -.00000065 00000-0 26093-3 0 9997 2 25649 52.0077 3.5473 0003136 53.2706 114.1617 12.02480297125449 0 GLOBALSTAR M041 1 25650U 99012B 24109.64652795 -.00000071 00000-0 17852-3 0 9994 2 25650 52.0012 233.4837 0002582 183.0689 177.0132 11.96660392127455 0 GLOBALSTAR M046 1 25651U 99012C 24109.79812507 -.00000078 00000-0 12180-3 0 9996 2 25651 52.0071 330.1923 0002925 115.3949 9.8770 12.09389322132317 0 GLOBALSTAR M037 1 25652U 99012D 24110.21856477 -.00000071 00000-0 18328-3 0 9993 2 25652 52.0028 35.1632 0001926 346.1279 160.7453 12.62401487157777 0 GLOBALSTAR M045 1 25676U 99019A 24110.20337733 -.00000038 00000-0 49320-3 0 9993 2 25676 51.9972 73.6820 0000709 87.0950 14.7384 12.27035202141582 0 GLOBALSTAR M019 1 25677U 99019B 24110.19152156 -.00000169 00000-0 -82722-3 0 9995 2 25677 51.9856 174.2557 0001412 173.6131 220.5634 12.13854318133841 0 GLOBALSTAR M044 1 25678U 99019C 24110.36521230 -.00000057 00000-0 37674-3 0 9999 2 25678 51.9970 72.1077 0006181 305.2209 223.2143 11.90230913120832 0 GLOBALSTAR M042 1 25679U 99019D 24110.57377618 -.00000032 00000-0 56777-3 0 9990 2 25679 51.9992 166.8021 0003291 145.8307 2.4317 12.22059857133536 0 GLOBALSTAR M025 1 25770U 99031A 24109.92366042 -.00000050 00000-0 53344-3 0 9999 2 25770 51.9827 62.0979 0001314 147.9610 307.2113 11.22550220434069 0 GLOBALSTAR M049 1 25771U 99031B 24109.29651641 -.00000106 00000-0 -14154-2 0 9990 2 25771 51.9868 76.9611 0003042 21.4667 338.6256 11.12103631 70151 0 GLOBALSTAR M047 1 25772U 99031C 24109.56479510 -.00000044 00000-0 71524-3 0 9999 2 25772 51.9801 113.8921 0016487 253.8737 106.0253 11.31920141423026 0 GLOBALSTAR M052 1 25773U 99031D 24109.40670091 -.00000031 00000-0 11561-2 0 9990 2 25773 51.9850 191.3655 0003094 185.3907 255.3012 11.15050382431128 0 GLOBALSTAR M035 1 25851U 99037A 24110.48360866 -.00000068 00000-0 -15500-3 0 9998 2 25851 51.9946 279.8559 0013448 19.1595 352.3179 11.04530025 49455 0 GLOBALSTAR M032 1 25852U 99037B 24110.49064291 -.00000018 00000-0 15756-2 0 9999 2 25852 51.9912 134.2714 0009906 173.1243 186.9694 11.19051341 87417 0 GLOBALSTAR M051 1 25853U 99037C 24109.87939818 -.00000042 00000-0 74321-3 0 9997 2 25853 51.9823 344.4748 0001545 149.5486 210.5414 11.42195522 83920 0 GLOBALSTAR M030 1 25854U 99037D 24110.49492849 -.00000017 00000-0 12188-2 0 9990 2 25854 51.9855 176.0372 0003490 11.6054 348.4843 11.55093340101184 0 GLOBALSTAR M048 1 25872U 99041A 24109.73523786 -.00000045 00000-0 69190-3 0 9992 2 25872 51.9364 263.4424 0013932 167.5031 293.7137 11.33845283 76834 0 GLOBALSTAR M026 1 25873U 99041B 24109.96204611 -.00000106 00000-0 -15278-2 0 9997 2 25873 52.0040 43.4403 0000991 273.9174 162.7174 11.06835413101516 0 GLOBALSTAR M043 1 25874U 99041C 24109.90955334 -.00000008 00000-0 17814-2 0 9995 2 25874 51.9438 353.7638 0012510 311.8356 130.2183 11.25678895 75090 0 GLOBALSTAR M028 1 25875U 99041D 24109.91076517 -.00000088 00000-0 75914-4 0 9999 2 25875 51.9656 18.1499 0062836 229.8600 129.6745 12.50553101137126 0 GLOBALSTAR M024 1 25883U 99043A 24109.66439101 -.00000070 00000-0 -16951-3 0 9991 2 25883 52.0016 258.4846 0002250 125.8705 322.5256 11.10161217 67713 0 GLOBALSTAR M027 1 25884U 99043B 24109.90160536 -.00000045 00000-0 69408-3 0 9998 2 25884 52.0228 323.9149 0021736 27.8913 332.3041 11.04368043 94366 0 GLOBALSTAR M054 1 25885U 99043C 24110.52484437 -.00000115 00000-0 -11058-2 0 9994 2 25885 52.0113 160.9196 0004915 170.4573 337.7884 11.39202438 71090 0 GLOBALSTAR M053 1 25886U 99043D 24109.92506333 -.00000049 00000-0 58397-3 0 9990 2 25886 51.9967 85.9100 0003416 78.6279 2.0153 11.27654577 71581 0 GLOBALSTAR M058 1 25907U 99049A 24110.42662135 -.00000111 00000-0 -35715-3 0 9990 2 25907 51.9921 160.7053 0002593 181.9889 178.0936 11.93176011102161 0 GLOBALSTAR M050 1 25908U 99049B 24110.19556194 -.00000059 00000-0 32751-3 0 9999 2 25908 51.9978 200.6738 0008832 264.1772 107.8337 12.07431933101702 0 GLOBALSTAR M033 1 25909U 99049C 24110.38391569 -.00000064 00000-0 26560-3 0 9991 2 25909 51.9892 101.2614 0011720 118.2643 241.9389 12.20269875116738 0 GLOBALSTAR M055 1 25910U 99049D 24110.18882716 -.00000045 00000-0 42543-3 0 9998 2 25910 51.9991 133.1923 0006878 331.5310 28.5165 12.29399376116354 0 GLOBALSTAR M057 1 25943U 99058A 24109.18295671 -.00000053 00000-0 36624-3 0 9992 2 25943 51.9959 114.3165 0002357 216.5027 143.5662 12.24784506114859 0 GLOBALSTAR M059 1 25944U 99058B 24109.96652381 -.00000117 00000-0 -38093-3 0 9998 2 25944 52.0015 274.8070 0000934 135.1734 41.0372 11.99960581523115 0 GLOBALSTAR M056 1 25945U 99058C 24109.81809475 .00000054 00000-0 16510-2 0 9998 2 25945 51.9958 288.0680 0001697 73.1391 30.9566 12.04774783111479 0 GLOBALSTAR M031 1 25946U 99058D 24109.45547763 -.00000128 00000-0 -38218-3 0 9992 2 25946 51.9952 206.8018 0001407 58.4973 21.9001 12.16006614112871 0 GLOBALSTAR M039 1 25961U 99062A 24110.06979348 -.00000028 00000-0 42119-3 0 9994 2 25961 51.9820 120.4528 0002828 125.5529 234.5602 12.62287887126687 0 GLOBALSTAR M034 1 25962U 99062B 24109.95623096 -.00000026 00000-0 86846-3 0 9990 2 25962 51.9903 34.1197 0013996 322.2842 117.0030 11.79427102 88337 0 GLOBALSTAR M029 1 25963U 99062C 24110.34135590 -.00000056 00000-0 37422-3 0 9992 2 25963 51.9781 162.1936 0002325 8.1988 73.2245 11.99876628118293 0 GLOBALSTAR M061 1 25964U 99062D 24109.59804687 -.00000065 00000-0 25761-3 0 9991 2 25964 51.9785 213.4613 0005927 241.5289 220.5124 11.76760705 71191 0 GLOBALSTAR M063 1 26081U 00008A 24109.28489903 -.00000050 00000-0 47276-3 0 9999 2 26081 51.9926 150.5959 0004817 217.6904 221.5225 11.86153287107159 0 GLOBALSTAR M062 1 26082U 00008B 24109.63524479 -.00000094 00000-0 27437-4 0 9993 2 26082 51.9841 264.2281 0006320 284.4006 204.4605 12.43433894443809 0 GLOBALSTAR M060 1 26083U 00008C 24109.34676899 .00000015 00000-0 10536-2 0 9998 2 26083 52.0000 164.9823 0003074 341.0555 99.8093 12.17631108100614 0 GLOBALSTAR M064 1 26084U 00008D 24110.53134084 -.00000058 00000-0 35227-3 0 9990 2 26084 52.0026 251.1364 0000782 341.9358 18.1446 11.88517953116830 0 GLOBALSTAR M065 1 31571U 07020A 24110.10489911 -.00000029 00000-0 41981-3 0 9995 2 31571 51.9894 76.9898 0010635 88.6076 351.5819 12.61967295780164 0 GLOBALSTAR M069 1 31573U 07020C 24109.95459927 -.00000049 00000-0 30763-3 0 9990 2 31573 51.9978 33.3517 0000583 36.9103 41.4744 12.62269728780970 0 GLOBALSTAR M072 1 31574U 07020D 24110.01589278 -.00000055 00000-0 27078-3 0 9995 2 31574 52.0059 129.0490 0000186 229.2280 148.2075 12.62270040779417 0 GLOBALSTAR M071 1 31576U 07020F 24108.95981709 -.00000058 00000-0 25807-3 0 9993 2 31576 52.0088 41.4971 0000599 331.6234 144.5380 12.62271166442030 0 GLOBALSTAR M067 1 32263U 07048A 24110.57763469 -.00000103 00000-0 -44318-4 0 9990 2 32263 51.9714 195.4192 0001339 151.4134 317.9030 12.40641938757146 0 GLOBALSTAR M070 1 32264U 07048B 24110.05778644 -.00000046 00000-0 32214-3 0 9991 2 32264 51.9766 340.5447 0000484 93.3603 54.0439 12.62290193761082 0 GLOBALSTAR M066 1 32265U 07048C 24110.22676417 -.00000043 00000-0 34105-3 0 9994 2 32265 51.9665 202.0176 0000808 131.6943 245.8014 12.62260284763332 0 GLOBALSTAR M068 1 32266U 07048D 24109.44059253 -.00000020 00000-0 46699-3 0 9996 2 32266 51.9864 156.9855 0000658 270.8470 192.5798 12.62785264763897 0 GLOBALSTAR M079 1 37188U 10054A 24109.84352779 -.00000072 00000-0 17713-3 0 9990 2 37188 52.0061 351.5567 0000991 84.4475 38.9155 12.62268510622864 0 GLOBALSTAR M074 1 37189U 10054B 24110.11660275 -.00000070 00000-0 18629-3 0 9991 2 37189 52.0036 350.1148 0000689 81.8379 82.3867 12.62267128623571 0 GLOBALSTAR M076 1 37190U 10054C 24110.58277400 -.00000063 00000-0 22586-3 0 9997 2 37190 52.0050 348.8266 0001003 114.3501 250.1263 12.62276798623640 0 GLOBALSTAR M077 1 37191U 10054D 24109.96774600 -.00000066 00000-0 21009-3 0 9994 2 37191 52.0074 307.4348 0000760 102.8956 44.4234 12.62271762623574 0 GLOBALSTAR M075 1 37192U 10054E 24109.97933674 -.00000074 00000-0 16631-3 0 9998 2 37192 51.9972 33.1553 0000702 68.8385 11.5782 12.62272618622803 0 GLOBALSTAR M073 1 37193U 10054F 24110.51994104 -.00000056 00000-0 26895-3 0 9999 2 37193 52.0058 305.0074 0000886 103.6940 274.5621 12.62264123624388 0 GLOBALSTAR M083 1 37739U 11033A 24110.54552838 -.00000077 00000-0 14989-3 0 9994 2 37739 51.9854 254.2377 0000674 91.0377 344.1810 12.62268917593717 0 GLOBALSTAR M088 1 37740U 11033B 24110.11036545 -.00000077 00000-0 15005-3 0 9991 2 37740 51.9713 161.4116 0000386 83.6908 293.6579 12.62267159589138 0 GLOBALSTAR M091 1 37741U 11033C 24110.47275522 -.00000079 00000-0 14076-3 0 9990 2 37741 51.9974 123.1035 0000506 49.0703 115.6839 12.62261624589937 0 GLOBALSTAR M085 1 37742U 11033D 24110.20829267 -.00000078 00000-0 14246-3 0 9991 2 37742 51.9867 75.3208 0000653 51.3485 50.8485 12.62269714590640 0 GLOBALSTAR M081 1 37743U 11033E 24110.23525493 -.00000087 00000-0 94491-4 0 9990 2 37743 51.9959 77.7641 0000735 63.4494 41.2708 12.62264262590684 0 GLOBALSTAR M089 1 37744U 11033F 24110.20515366 -.00000077 00000-0 14901-3 0 9992 2 37744 51.9956 32.1659 0000669 104.1469 42.8067 12.62262105591395 0 GLOBALSTAR M084 1 38040U 11080A 24109.73330458 -.00000085 00000-0 10284-3 0 9996 2 38040 52.0002 260.6640 0000811 132.3079 330.8348 12.62273493569069 0 GLOBALSTAR M080 1 38041U 11080B 24110.57260885 -.00000094 00000-0 52212-4 0 9995 2 38041 52.0055 259.5688 0001018 133.1658 304.6089 12.62271420569439 0 GLOBALSTAR M082 1 38042U 11080C 24110.50701946 -.00000095 00000-0 48738-4 0 9996 2 38042 52.0068 215.1702 0000394 44.7347 34.6359 12.62268237570161 0 GLOBALSTAR M092 1 38043U 11080D 24110.02421793 -.00000046 00000-0 32253-3 0 9993 2 38043 52.0084 306.9937 0000603 109.7291 55.5066 12.62278471568594 0 GLOBALSTAR M090 1 38044U 11080E 24109.50381868 -.00000098 00000-0 34411-4 0 9999 2 38044 51.9877 212.5779 0000431 91.8415 347.8240 12.62268221569984 0 GLOBALSTAR M086 1 38045U 11080F 24110.22837008 -.00000097 00000-0 38867-4 0 9991 2 38045 51.9887 210.8904 0001462 107.8169 265.4784 12.62269637570124 0 GLOBALSTAR M097 1 39072U 13005A 24110.17292559 -.00000083 00000-0 11856-3 0 9994 2 39072 52.0024 125.1761 0000512 67.2216 292.8704 12.62262452517345 0 GLOBALSTAR M093 1 39073U 13005B 24110.22549051 -.00000072 00000-0 17893-3 0 9998 2 39073 51.9788 118.9961 0000596 57.1998 302.8926 12.62263258517343 0 GLOBALSTAR M094 1 39074U 13005C 24110.14634800 -.00000085 00000-0 10565-3 0 9990 2 39074 51.9983 33.1944 0000852 66.4210 293.6746 12.62264439518840 0 GLOBALSTAR M096 1 39075U 13005D 24109.92189481 -.00000093 00000-0 60756-4 0 9992 2 39075 52.0071 82.0596 0000730 52.8140 307.2793 12.62264309517718 0 GLOBALSTAR M078 1 39076U 13005E 24110.52956407 -.00000009 00000-0 52726-3 0 9995 2 39076 51.9855 165.3036 0000724 336.4565 23.6268 12.62262708516622 0 GLOBALSTAR M095 1 39077U 13005F 24110.31759409 -.00000072 00000-0 17818-3 0 9999 2 39077 51.9782 163.3506 0000593 27.1461 332.9436 12.62265342516603 0 GLOBALSTAR M087 1 52888U 22064A 24110.15242892 -.00000074 00000-0 10338-3 0 9996 2 52888 51.9770 54.2300 0008957 212.6157 147.4191 13.37570156 89629